KI7MOQ Weather Reports


Display with metric or nautical units.
time (UTC)temp
F
wind
direction
speed
MPH
gust
MPH
rain 1hr
in
rain 24hr
in
rain mn
in
humidity
%
barometer
mb
20260505094540 54 90 0.0 0.0 0.00 0.00 0.00 90 1016.9
20260505094036 54 91 0.0 0.0 0.00 0.00 0.00 90 1016.9
20260505093532 55 91 0.0 0.0 0.00 0.00 0.00 90 1016.9
20260505093030 54 91 0.0 0.0 0.00 0.00 0.00 90 1016.9
20260505092527 54 91 0.0 0.0 0.00 0.00 0.00 90 1016.9
20260505092026 54 91 0.0 0.0 0.00 0.00 0.00 90 1016.8
20260505091522 54 91 0.0 0.0 0.00 0.00 0.00 90 1016.8
20260505091020 54 91 0.0 0.0 0.00 0.00 0.00 90 1016.7
20260505090518 54 91 0.0 0.0 0.00 0.00 0.00 90 1016.5
20260505090015 54 91 0.0 0.0 0.00 0.00 0.00 90 1016.5
20260505085513 55 90 0.0 0.0 0.00 0.00 0.00 90 1016.6
20260505085011 55 91 0.0 0.0 0.00 0.00 0.00 89 1016.5
20260505084509 55 91 0.0 0.0 0.00 0.00 0.00 89 1016.5
20260505084007 55 91 0.0 0.0 0.00 0.00 0.00 89 1016.3
20260505083504 55 91 0.0 0.0 0.00 0.00 0.00 89 1016.5
20260505083000 55 90 0.0 0.0 0.00 0.00 0.00 88 1016.3
20260505082455 55 93 0.0 0.0 0.00 0.00 0.00 88 1016.3
20260505081953 55 96 0.0 1.0 0.00 0.00 0.00 89 1016.4
20260505081450 55 96 0.0 0.0 0.00 0.00 0.00 89 1016.3
20260505080946 55 94 0.0 0.0 0.00 0.00 0.00 89 1016.4
20260505080442 55 94 0.0 0.0 0.00 0.00 0.00 89 1016.2
20260505075938 55 96 0.0 0.0 0.00 0.00 0.00 89 1016.2
20260505075435 55 98 0.0 0.0 0.00 0.00 0.00 89 1016.3
20260505074933 54 95 0.0 0.0 0.00 0.00 0.00 89 1016.4
20260505074430 54 96 0.0 0.0 0.00 0.00 0.00 89 1016.3
20260505073926 54 96 0.0 0.0 0.00 0.00 0.00 89 1016.1
20260505073424 54 96 0.0 0.0 0.00 0.00 0.00 88 1016.1
20260505072921 55 96 0.0 0.0 0.00 0.00 0.00 88 1016.1
20260505072417 55 96 0.0 0.0 0.00 0.00 0.00 88 1015.9
20260505071914 55 96 0.0 0.0 0.00 0.00 0.00 88 1015.9
20260505071410 55 96 0.0 0.0 0.00 0.00 0.00 87 1015.9
20260505070908 55 93 0.0 0.0 0.00 0.00 0.00 87 1015.7
20260505070404 56 96 1.0 1.0 0.00 0.00 0.00 86 1015.6
20260505065900 56 96 1.0 1.0 0.00 0.00 0.00 85 1015.7
20260505065357 56 98 0.0 0.0 0.00 0.00 0.00 85 1015.5
20260505064854 56 90 0.0 1.0 0.00 0.00 0.00 84 1015.5
20260505064351 57 94 0.0 0.0 0.00 0.00 0.00 84 1015.6
20260505063849 57 94 0.0 1.0 0.00 0.00 0.00 83 1015.2
20260505063339 57 90 0.0 0.0 0.00 0.00 0.00 83 1015.4
20260505062836 57 97 0.0 0.0 0.00 0.00 0.00 82 1015.1
20260505062334 57 104 0.0 0.0 0.00 0.00 0.00 82 1015.1
20260505061830 58 103 0.0 0.0 0.00 0.00 0.00 82 1015.0
20260505061328 58 103 0.0 0.0 0.00 0.00 0.00 81 1014.8
20260505060826 59 104 0.0 0.0 0.00 0.00 0.00 80 1014.9
20260505060322 59 104 0.0 0.0 0.00 0.00 0.00 79 1014.8
20260505055818 59 104 0.0 0.0 0.00 0.00 0.00 79 1014.7
20260505055314 59 105 0.0 0.0 0.00 0.00 0.00 79 1014.5
20260505054812 59 95 0.0 0.0 0.00 0.00 0.00 78 1014.6
20260505054309 59 95 0.0 0.0 0.00 0.00 0.00 78 1014.9
20260505053807 60 95 0.0 1.0 0.00 0.00 0.00 78 1014.8
20260505053304 60 97 0.0 0.0 0.00 0.00 0.00 77 1014.6
20260505052801 60 97 0.0 0.0 0.00 0.00 0.00 77 1014.8
20260505052258 60 96 0.0 0.0 0.00 0.00 0.00 76 1014.6
20260505051754 61 96 1.0 1.0 0.00 0.00 0.00 75 1014.6
20260505051253 61 98 1.0 1.0 0.00 0.00 0.00 75 1014.5
20260505050750 62 96 1.0 1.0 0.00 0.00 0.00 74 1014.6
20260505050249 62 96 0.0 1.0 0.00 0.00 0.00 74 1014.5
20260505041718 65 93 1.0 1.0 0.00 0.00 0.00 68 1013.8
20260505041215 65 96 1.0 1.0 0.00 0.00 0.00 68 1013.7
20260505040713 65 96 1.0 1.0 0.00 0.00 0.00 67 1013.7
20260505040210 65 88 1.0 1.0 0.00 0.00 0.00 67 1013.5
20260505035707 66 73 2.0 3.0 0.00 0.00 0.00 66 1013.5
20260505035203 66 87 1.0 1.0 0.00 0.00 0.00 66 1013.4
20260505034659 67 87 1.0 1.0 0.00 0.00 0.00 66 1013.4
20260505034156 67 98 1.0 1.0 0.00 0.00 0.00 65 1013.3
20260505033653 68 95 0.0 1.0 0.00 0.00 0.00 65 1013.0
20260505033151 68 95 1.0 1.0 0.00 0.00 0.00 64 1013.0
20260505032649 68 95 0.0 1.0 0.00 0.00 0.00 63 1013.1
20260505032144 69 93 1.0 1.0 0.00 0.00 0.00 64 1012.8
20260505031642 70 93 1.0 1.0 0.00 0.00 0.00 64 1012.7
20260505031138 70 98 1.0 1.0 0.00 0.00 0.00 68 1012.8
20260505030635 71 112 0.0 0.0 0.00 0.00 0.00 66 1012.5
20260505030131 71 120 0.0 1.0 0.00 0.00 0.00 66 1012.5
20260505025627 71 121 1.0 1.0 0.00 0.00 0.00 65 1012.6
20260505025126 71 128 2.0 2.0 0.00 0.00 0.00 65 1012.3
20260505024623 71 117 0.0 1.0 0.00 0.00 0.00 65 1012.3
20260505024120 72 115 0.0 0.0 0.00 0.00 0.00 64 1012.4
20260505023617 72 119 1.0 1.0 0.00 0.00 0.00 64 1012.2
20260505023115 72 120 1.0 1.0 0.00 0.00 0.00 63 1012.2
20260505022612 72 202 2.0 3.0 0.00 0.00 0.00 63 1012.2
20260505022109 72 122 1.0 1.0 0.00 0.00 0.00 63 1012.4
20260505021605 72 115 0.0 1.0 0.00 0.00 0.00 62 1012.2
20260505021102 73 122 1.0 1.0 0.00 0.00 0.00 62 1012.2
20260505020603 73 130 1.0 2.0 0.00 0.00 0.00 62 1012.4
20260505020059 73 130 1.0 2.0 0.00 0.00 0.00 61 1012.3
20260505015556 73 131 1.0 1.0 0.00 0.00 0.00 61 1012.0
20260505015053 73 163 2.0 2.0 0.00 0.00 0.00 60 1012.3
20260505014550 73 133 2.0 2.0 0.00 0.00 0.00 60 1012.3
20260505014047 73 134 2.0 2.0 0.00 0.00 0.00 60 1012.3
20260505013544 73 133 2.0 2.0 0.00 0.00 0.00 60 1012.3
20260505013042 74 127 1.0 2.0 0.00 0.00 0.00 59 1012.4
20260505012539 73 126 1.0 2.0 0.00 0.00 0.00 59 1012.4
20260505012036 74 114 0.0 0.0 0.00 0.00 0.00 58 1012.5
20260505011531 74 122 2.0 2.0 0.00 0.00 0.00 58 1012.4
20260505011029 74 130 1.0 2.0 0.00 0.00 0.00 57 1012.4
20260505010524 74 113 0.0 1.0 0.00 0.00 0.00 57 1012.4
20260505010021 74 115 0.0 1.0 0.00 0.00 0.00 57 1012.6
20260505005517 74 67 0.0 1.0 0.00 0.00 0.00 57 1012.5
20260505005015 73 107 0.0 0.0 0.00 0.00 0.00 57 1012.4
20260505004512 74 127 1.0 2.0 0.00 0.00 0.00 56 1012.6
20260505004009 74 125 1.0 1.0 0.00 0.00 0.00 56 1012.6
20260505003506 74 122 1.0 1.0 0.00 0.00 0.00 56 1012.8
20260505003003 74 91 1.0 1.0 0.00 0.00 0.00 55 1012.7
20260505002458 74 109 0.0 0.0 0.00 0.00 0.00 56 1012.8
20260505001957 74 116 1.0 1.0 0.00 0.00 0.00 56 1012.8
20260505001454 73 107 0.0 0.0 0.00 0.00 0.00 56 1012.8
20260505000950 73 101 1.0 2.0 0.00 0.00 0.00 56 1012.9
20260505000449 73 121 1.0 1.0 0.00 0.00 0.00 56 1012.9
20260504235945 74 103 0.0 0.0 0.00 0.00 0.00 55 1013.0
20260504235443 74 118 0.0 0.0 0.00 0.00 0.00 56 1012.9
20260504234939 73 131 2.0 2.0 0.00 0.00 0.00 56 1013.0
20260504234436 73 105 1.0 1.0 0.00 0.00 0.00 56 1013.0
20260504233933 73 122 2.0 2.0 0.00 0.00 0.00 56 1012.9
20260504233428 73 217 4.0 4.0 0.00 0.00 0.00 55 1013.0
20260504232925 73 127 1.0 1.0 0.00 0.00 0.00 55 1012.9
20260504232423 73 114 1.0 1.0 0.00 0.00 0.00 56 1013.0
20260504231920 73 123 1.0 1.0 0.00 0.00 0.00 56 1013.1
20260504231416 73 133 2.0 2.0 0.00 0.00 0.00 56 1013.2
20260504230912 72 125 2.0 2.0 0.00 0.00 0.00 57 1013.2
20260504230410 73 112 1.0 1.0 0.00 0.00 0.00 56 1013.3
20260504225908 71 104 0.0 0.0 0.00 0.00 0.00 59 1013.2
20260504225405 71 70 1.0 2.0 0.00 0.00 0.00 58 1013.3
20260504224902 72 127 2.0 2.0 0.00 0.00 0.00 57 1013.5
20260504224358 71 111 0.0 0.0 0.00 0.00 0.00 58 1013.5
20260504223856 71 117 0.0 1.0 0.00 0.00 0.00 59 1013.3
20260504223356 70 202 2.0 2.0 0.00 0.00 0.00 60 1013.5
20260504222852 71 118 1.0 1.0 0.00 0.00 0.00 59 1013.8
20260504222349 70 100 0.0 0.0 0.00 0.00 0.00 59 1013.9
20260504221848 71 148 2.0 2.0 0.00 0.00 0.00 58 1013.8
20260504221344 69 101 0.0 0.0 0.00 0.00 0.00 61 1014.0
20260504220842 70 182 2.0 2.0 0.00 0.00 0.00 60 1013.9
20260504220338 69 128 2.0 2.0 0.00 0.00 0.00 61 1014.0
20260504215835 69 112 0.0 1.0 0.00 0.00 0.00 60 1013.9
20260504215331 69 174 2.0 2.0 0.00 0.00 0.00 60 1014.2
20260504214828 69 89 1.0 2.0 0.00 0.00 0.00 61 1014.1
20260504214325 68 111 0.0 0.0 0.00 0.00 0.00 62 1014.1
20260504213821 68 136 1.0 1.0 0.00 0.00 0.00 61 1014.4
20260504213317 68 130 0.0 0.0 0.00 0.00 0.00 62 1014.3
20260504212815 68 108 1.0 1.0 0.00 0.00 0.00 61 1014.5
20260504212311 68 115 0.0 0.0 0.00 0.00 0.00 63 1014.5
20260504211809 68 126 2.0 2.0 0.00 0.00 0.00 62 1014.5
20260504211304 68 131 2.0 2.0 0.00 0.00 0.00 62 1014.5
20260504210802 67 94 0.0 0.0 0.00 0.00 0.00 64 1014.6
20260504210259 67 141 2.0 2.0 0.00 0.00 0.00 64 1014.8
20260504205756 66 106 0.0 1.0 0.00 0.00 0.00 64 1014.7
20260504205254 67 180 2.0 2.0 0.00 0.00 0.00 65 1014.8
20260504204752 67 136 0.0 1.0 0.00 0.00 0.00 64 1014.9
20260504204250 66 116 1.0 1.0 0.00 0.00 0.00 65 1015.0
20260504203749 67 137 2.0 2.0 0.00 0.00 0.00 65 1015.1
20260504203247 66 125 1.0 2.0 0.00 0.00 0.00 65 1015.4
20260504202747 65 157 2.0 3.0 0.00 0.00 0.00 67 1015.4
20260504202244 65 205 3.0 3.0 0.00 0.00 0.00 68 1015.2
20260504201741 64 124 1.0 2.0 0.00 0.00 0.00 68 1015.2
20260504201238 66 142 2.0 2.0 0.00 0.00 0.00 67 1015.2
20260504200736 65 118 3.0 4.0 0.00 0.00 0.00 68 1015.5
20260504200232 64 119 2.0 2.0 0.00 0.00 0.00 69 1015.5
20260504195728 63 121 1.0 1.0 0.00 0.00 0.00 70 1015.5
20260504195224 64 120 1.0 1.0 0.00 0.00 0.00 70 1015.6
20260504194722 63 121 1.0 2.0 0.00 0.00 0.00 70 1015.6
20260504194218 64 116 1.0 2.0 0.00 0.00 0.00 70 1015.7
20260504193714 64 108 0.0 1.0 0.00 0.00 0.00 69 1015.7
20260504193212 62 107 0.0 0.0 0.00 0.00 0.00 72 1015.5
20260504192710 62 104 0.0 1.0 0.00 0.00 0.00 72 1015.7
20260504192208 63 115 2.0 3.0 0.00 0.00 0.00 71 1015.7
20260504191706 62 135 1.0 2.0 0.00 0.00 0.00 72 1015.9
20260504191202 64 62 1.0 1.0 0.00 0.00 0.00 70 1015.8
20260504190658 63 110 3.0 3.0 0.00 0.00 0.00 71 1016.0
20260504190154 61 111 0.0 0.0 0.00 0.00 0.00 74 1016.0
20260504185651 62 181 2.0 2.0 0.00 0.00 0.00 74 1016.0
20260504185148 62 116 1.0 1.0 0.00 0.00 0.00 74 1016.1
20260504184644 61 125 3.0 3.0 0.00 0.00 0.00 74 1016.2
20260504184139 61 131 2.0 3.0 0.00 0.00 0.00 76 1016.2
20260504183636 60 127 1.0 1.0 0.00 0.00 0.00 77 1016.2
20260504183133 60 119 1.0 1.0 0.00 0.00 0.00 78 1016.3
20260504182631 59 127 3.0 3.0 0.00 0.00 0.00 78 1016.2
20260504182129 58 123 3.0 3.0 0.00 0.00 0.00 80 1016.0
20260504181626 59 170 2.0 2.0 0.00 0.00 0.00 79 1016.1
20260504181123 59 166 2.0 2.0 0.00 0.00 0.00 79 1016.3
20260504180622 58 150 1.0 2.0 0.00 0.00 0.00 80 1016.2
20260504180121 59 127 1.0 1.0 0.00 0.00 0.00 80 1016.1
20260504175618 58 198 2.0 2.0 0.00 0.00 0.00 80 1016.1
20260504175114 59 118 2.0 2.0 0.00 0.00 0.00 80 1016.2
20260504174612 59 117 1.0 1.0 0.00 0.00 0.00 79 1016.2
20260504174109 58 174 1.0 2.0 0.00 0.00 0.00 80 1016.2
20260504173605 58 106 2.0 3.0 0.00 0.00 0.00 80 1016.1
20260504173103 58 115 0.0 0.0 0.00 0.00 0.00 81 1016.0
20260504172559 58 148 2.0 2.0 0.00 0.00 0.00 81 1016.3
20260504172056 58 117 2.0 2.0 0.00 0.00 0.00 80 1016.1
20260504171552 58 111 2.0 2.0 0.00 0.00 0.00 79 1015.9
20260504171050 58 105 1.0 2.0 0.00 0.00 0.00 80 1015.9
20260504170545 58 134 4.0 4.0 0.00 0.00 0.00 80 1016.1
20260504150929 58 115 1.0 1.0 0.00 0.00 0.00 79 1015.5
20260504150426 58 111 1.0 1.0 0.00 0.00 0.00 80 1015.2
20260504140853 57 117 1.0 2.0 0.00 0.00 0.00 83 1014.7
20260504140349 57 117 1.0 1.0 0.00 0.00 0.00 83 1014.7
20260504130817 57 118 1.0 2.0 0.00 0.00 0.00 80 1013.9
20260504130314 57 111 0.0 1.0 0.00 0.00 0.00 80 1013.6
20260504120237 59 114 1.0 1.0 0.00 0.00 0.00 77 1012.6
20260504110704 60 114 0.0 1.0 0.00 0.00 0.00 74 1012.0
20260504110201 60 108 0.0 0.0 0.00 0.00 0.00 76 1011.8
20260504100125 58 97 0.0 1.0 0.00 0.00 0.00 82 1011.2